Location: Dammartin
(48.9032°N, 1.6195°E)
Time: 14:14:14
(UTC+00:00)

YUBILEINY - Pass Details

Date: 08 December 2023
Orbit: 1479 x 1508 km, 82.5° (Epoch: 02 March)

Event Time Altitude Azimuth Distance (km) Brightness Sun altitude
Rises 18:56:42 0° 350° (N) 4,631 ? -28.5°
Reaches altitude 10° 18:59:46 10° 356° (N) 3,643 ? -29.0°
Enters shadow 19:06:03 42° 33° (NNE) 2,014 ? -30.0°
